| time (UTC) | temp F | wind direction | speed MPH | gust MPH | rain 1hr in | rain 24hr in | rain mn in | humidity % | barometer mb |
| 20260902142034 | 91 | 244 | 3.0 | 8.0 | 0.00 | 0.00 | 0.00 | 46 | 1018.1 |
| 20260902141051 | 91 | 212 | 2.0 | 6.0 | 0.00 | 0.00 | 0.00 | 47 | 1018.0 |
| 20260902140209 | 91 | 239 | 3.0 | 8.0 | 0.00 | 0.00 | 0.00 | 47 | 1018.1 |
| 20260902135028 | 90 | 243 | 1.0 | 3.0 | 0.00 | 0.00 | 0.00 | 47 | 1018.2 |
| 20260902134046 | 90 | 249 | 1.0 | 4.0 | 0.00 | 0.00 | 0.00 | 48 | 1018.2 |
| 20260902133123 | 90 | 301 | 2.0 | 6.0 | 0.00 | 0.00 | 0.00 | 47 | 1018.4 |
| 20260902132020 | 91 | 169 | 2.0 | 6.0 | 0.00 | 0.00 | 0.00 | 47 | 1018.6 |
| 20260902131046 | 90 | 240 | 2.0 | 4.0 | 0.00 | 0.00 | 0.00 | 48 | 1018.7 |
| 20260902130050 | 90 | 340 | 1.0 | 3.0 | 0.00 | 0.00 | 0.00 | 48 | 1018.7 |
| 20260902125022 | 90 | 221 | 1.0 | 3.0 | 0.00 | 0.00 | 0.00 | 48 | 1018.9 |
| 20260902124054 | 90 | 247 | 4.0 | 7.0 | 0.00 | 0.00 | 0.00 | 49 | 1019.1 |
| 20260902123132 | 89 | 82 | 1.0 | 7.0 | 0.00 | 0.00 | 0.00 | 50 | 1018.9 |
| 20260902122151 | 90 | 220 | 3.0 | 8.0 | 0.00 | 0.00 | 0.00 | 49 | 1019.1 |
| 20260902121106 | 88 | 209 | 1.0 | 6.0 | 0.00 | 0.00 | 0.00 | 51 | 1019.3 |
| 20260902120202 | 88 | 246 | 1.0 | 4.0 | 0.00 | 0.00 | 0.00 | 52 | 1019.2 |
| 20260902115715 | 88 | 328 | 2.0 | 4.0 | 0.00 | 0.00 | 0.00 | 51 | 1019.2 |
| 20260902114532 | 89 | 277 | 3.0 | 7.0 | 0.00 | 0.00 | 0.00 | 50 | 1019.5 |
| 20260902112520 | 87 | 243 | 1.0 | 3.0 | 0.00 | 0.00 | 0.00 | 52 | 1019.5 |
| 20260902111653 | 87 | 287 | 2.0 | 6.0 | 0.00 | 0.00 | 0.00 | 51 | 1019.7 |
| 20260902110554 | 88 | 204 | 2.0 | 4.0 | 0.00 | 0.00 | 0.00 | 50 | 1019.7 |
| 20260902105533 | 88 | 107 | 2.0 | 4.0 | 0.00 | 0.00 | 0.00 | 50 | 1019.8 |
| 20260902104544 | 87 | 230 | 1.0 | 4.0 | 0.00 | 0.00 | 0.00 | 51 | 1020.0 |
| 20260902103617 | 88 | 145 | 0.0 | 3.0 | 0.00 | 0.00 | 0.00 | 48 | 1020.1 |
| 20260902102534 | 87 | 119 | 1.0 | 4.0 | 0.00 | 0.00 | 0.00 | 51 | 1020.2 |
| 20260902101524 | 86 | 56 | 1.0 | 2.0 | 0.00 | 0.00 | 0.00 | 52 | 1020.2 |
| 20260902100521 | 86 | 344 | 1.0 | 3.0 | 0.00 | 0.00 | 0.00 | 51 | 1020.4 |
| 20260902095538 | 85 | 89 | 1.0 | 3.0 | 0.00 | 0.00 | 0.00 | 52 | 1020.5 |
| 20260902094536 | 85 | 86 | 0.0 | 3.0 | 0.00 | 0.00 | 0.00 | 51 | 1020.6 |
| 20260902093554 | 85 | 108 | 1.0 | 3.0 | 0.00 | 0.00 | 0.00 | 52 | 1020.5 |
| 20260902092650 | 84 | 107 | 3.0 | 6.0 | 0.00 | 0.00 | 0.00 | 53 | 1020.6 |
| 20260902091628 | 84 | 41 | 0.0 | 1.0 | 0.00 | 0.00 | 0.00 | 55 | 1020.6 |
| 20260902090604 | 83 | 89 | 0.0 | 1.0 | 0.00 | 0.00 | 0.00 | 55 | 1020.5 |
| 20260902085622 | 82 | 97 | 0.0 | 1.0 | 0.00 | 0.00 | 0.00 | 56 | 1020.6 |
| 20260902084613 | 82 | 98 | 1.0 | 2.0 | 0.00 | 0.00 | 0.00 | 57 | 1020.6 |
| 20260902083710 | 82 | 91 | 0.0 | 3.0 | 0.00 | 0.00 | 0.00 | 56 | 1020.7 |
| 20260902082627 | 83 | 99 | 1.0 | 3.0 | 0.00 | 0.00 | 0.00 | 54 | 1020.5 |
| 20260902081519 | 82 | 90 | 1.0 | 2.0 | 0.00 | 0.00 | 0.00 | 57 | 1020.6 |
| 20260902080048 | 82 | 0.0 | 0.0 | 0.00 | 0.00 | 0.00 | 57 | 1020.4 | |
| 20260902075027 | 80 | 0.0 | 0.0 | 0.00 | 0.00 | 0.00 | 60 | 1020.4 | |
| 20260902074024 | 80 | 10 | 1.0 | 2.0 | 0.00 | 0.00 | 0.00 | 61 | 1020.3 |
| 20260902073040 | 80 | 0.0 | 0.0 | 0.00 | 0.00 | 0.00 | 62 | 1020.3 | |
| 20260902072017 | 80 | 0.0 | 0.0 | 0.00 | 0.00 | 0.00 | 66 | 1020.4 | |
| 20260902071054 | 78 | 0.0 | 0.0 | 0.00 | 0.00 | 0.00 | 67 | 1020.1 | |
| 20260902070026 | 77 | 0.0 | 0.0 | 0.00 | 0.00 | 0.00 | 69 | 1020.4 | |
| 20260902065044 | 76 | 0.0 | 0.0 | 0.00 | 0.00 | 0.00 | 71 | 1020.3 | |
| 20260902064041 | 75 | 0.0 | 0.0 | 0.00 | 0.00 | 0.00 | 76 | 1020.2 | |
| 20260902063153 | 75 | 0.0 | 0.0 | 0.00 | 0.00 | 0.00 | 76 | 1020.3 | |
| 20260902062030 | 74 | 0.0 | 0.0 | 0.00 | 0.00 | 0.00 | 78 | 1020.1 | |
| 20260902061209 | 73 | 0.0 | 0.0 | 0.00 | 0.00 | 0.00 | 79 | 1020.0 | |
| 20260902060519 | 71 | 98 | 0.0 | 1.0 | 0.00 | 0.00 | 0.00 | 80 | 1020.1 |
| 20260902055535 | 70 | 0.0 | 0.0 | 0.00 | 0.00 | 0.00 | 83 | 1020.1 | |
| 20260902054533 | 69 | 0.0 | 0.0 | 0.00 | 0.00 | 0.00 | 84 | 1019.9 | |
| 20260902053710 | 68 | 0.0 | 0.0 | 0.00 | 0.00 | 0.00 | 84 | 1019.8 | |
| 20260902052527 | 68 | 0.0 | 0.0 | 0.00 | 0.00 | 0.00 | 85 | 1019.6 | |
| 20260902051518 | 67 | 0.0 | 0.0 | 0.00 | 0.00 | 0.00 | 86 | 1019.6 | |
| 20260902050637 | 67 | 0.0 | 0.0 | 0.00 | 0.00 | 0.00 | 87 | 1019.3 | |
| 20260902045536 | 67 | 0.0 | 0.0 | 0.00 | 0.00 | 0.00 | 87 | 1019.3 | |
| 20260902044543 | 67 | 0.0 | 0.0 | 0.00 | 0.00 | 0.00 | 87 | 1019.4 | |
| 20260902043521 | 67 | 0.0 | 0.0 | 0.00 | 0.00 | 0.00 | 87 | 1019.4 | |
| 20260902042557 | 67 | 0.0 | 0.0 | 0.00 | 0.00 | 0.00 | 86 | 1019.3 | |
| 20260902041529 | 67 | 0.0 | 0.0 | 0.00 | 0.00 | 0.00 | 85 | 1019.3 | |
| 20260902040642 | 67 | 0.0 | 0.0 | 0.00 | 0.00 | 0.00 | 85 | 1019.3 | |
| 20260902035619 | 68 | 0.0 | 0.0 | 0.00 | 0.00 | 0.00 | 85 | 1019.3 | |
| 20260902034536 | 68 | 0.0 | 0.0 | 0.00 | 0.00 | 0.00 | 84 | 1019.3 | |
| 20260902033533 | 68 | 0.0 | 0.0 | 0.00 | 0.00 | 0.00 | 83 | 1019.2 | |
| 20260902032525 | 68 | 0.0 | 0.0 | 0.00 | 0.00 | 0.00 | 82 | 1019.2 | |
| 20260902031615 | 69 | 0.0 | 0.0 | 0.00 | 0.00 | 0.00 | 81 | 1019.3 | |
| 20260902030521 | 69 | 0.0 | 0.0 | 0.00 | 0.00 | 0.00 | 82 | 1019.3 | |
| 20260902025619 | 69 | 0.0 | 0.0 | 0.00 | 0.00 | 0.00 | 82 | 1019.2 | |
| 20260902024717 | 69 | 0.0 | 0.0 | 0.00 | 0.00 | 0.00 | 82 | 1019.2 | |
| 20260902023653 | 69 | 0.0 | 0.0 | 0.00 | 0.00 | 0.00 | 81 | 1019.1 | |
| 20260902022651 | 69 | 0.0 | 0.0 | 0.00 | 0.00 | 0.00 | 81 | 1019.3 | |
| 20260902021628 | 69 | 0.0 | 0.0 | 0.00 | 0.00 | 0.00 | 83 | 1019.1 | |
| 20260902020625 | 69 | 0.0 | 0.0 | 0.00 | 0.00 | 0.00 | 83 | 1019.1 | |
| 20260902015535 | 69 | 0.0 | 0.0 | 0.00 | 0.00 | 0.00 | 82 | 1019.1 | |
| 20260902014631 | 69 | 0.0 | 0.0 | 0.00 | 0.00 | 0.00 | 82 | 1019.2 | |
| 20260902013548 | 69 | 0.0 | 0.0 | 0.00 | 0.00 | 0.00 | 82 | 1019.1 | |
| 20260902012525 | 69 | 0.0 | 0.0 | 0.00 | 0.00 | 0.00 | 83 | 1019.1 | |
| 20260902010538 | 70 | 0.0 | 0.0 | 0.00 | 0.00 | 0.00 | 82 | 1019.2 | |
| 20260902005618 | 70 | 0.0 | 0.0 | 0.00 | 0.00 | 0.00 | 82 | 1019.3 | |
| 20260902004532 | 70 | 0.0 | 0.0 | 0.00 | 0.00 | 0.00 | 81 | 1019.2 | |
| 20260902003608 | 70 | 0.0 | 0.0 | 0.00 | 0.00 | 0.00 | 81 | 1019.2 | |
| 20260902002526 | 70 | 0.0 | 0.0 | 0.00 | 0.00 | 0.00 | 80 | 1019.0 | |
| 20260902001542 | 71 | 0.0 | 0.0 | 0.00 | 0.00 | 0.00 | 79 | 1019.1 | |
| 20260902000517 | 71 | 0.0 | 0.0 | 0.00 | 0.00 | 0.00 | 78 | 1019.1 | |
| 20260901235535 | 72 | 0.0 | 0.0 | 0.00 | 0.00 | 0.00 | 77 | 1019.2 | |
| 20260901234531 | 72 | 0.0 | 0.0 | 0.00 | 0.00 | 0.00 | 75 | 1019.1 | |
| 20260901233648 | 73 | 0.0 | 0.0 | 0.00 | 0.00 | 0.00 | 74 | 1019.0 | |
| 20260901232526 | 73 | 17 | 0.0 | 1.0 | 0.00 | 0.00 | 0.00 | 74 | 1019.1 |
| 20260901231521 | 73 | 0.0 | 0.0 | 0.00 | 0.00 | 0.00 | 74 | 1019.1 | |
| 20260901230519 | 74 | 0.0 | 0.0 | 0.00 | 0.00 | 0.00 | 73 | 1019.3 | |
| 20260901225534 | 74 | 0.0 | 0.0 | 0.00 | 0.00 | 0.00 | 72 | 1019.1 | |
| 20260901224531 | 74 | 1 | 1.0 | 2.0 | 0.00 | 0.00 | 0.00 | 72 | 1019.0 |
| 20260901223530 | 74 | 356 | 0.0 | 2.0 | 0.00 | 0.00 | 0.00 | 71 | 1019.0 |
| 20260901222527 | 75 | 0.0 | 0.0 | 0.00 | 0.00 | 0.00 | 71 | 1019.0 | |
| 20260901221521 | 75 | 358 | 1.0 | 3.0 | 0.00 | 0.00 | 0.00 | 70 | 1019.0 |
| 20260901220517 | 75 | 0.0 | 0.0 | 0.00 | 0.00 | 0.00 | 70 | 1019.0 | |
| 20260901215554 | 76 | 16 | 0.0 | 1.0 | 0.00 | 0.00 | 0.00 | 69 | 1019.0 |
| 20260901214531 | 76 | 0.0 | 0.0 | 0.00 | 0.00 | 0.00 | 68 | 1019.0 | |
| 20260901213603 | 76 | 0.0 | 0.0 | 0.00 | 0.00 | 0.00 | 68 | 1018.9 | |
| 20260901212519 | 77 | 0.0 | 0.0 | 0.00 | 0.00 | 0.00 | 67 | 1019.0 | |
| 20260901211556 | 77 | 0.0 | 0.0 | 0.00 | 0.00 | 0.00 | 67 | 1019.1 | |
| 20260901210653 | 77 | 0.0 | 0.0 | 0.00 | 0.00 | 0.00 | 67 | 1019.3 | |
| 20260901205530 | 77 | 0.0 | 0.0 | 0.00 | 0.00 | 0.00 | 68 | 1019.3 | |
| 20260901204708 | 76 | 24 | 0.0 | 1.0 | 0.00 | 0.00 | 0.00 | 68 | 1019.2 |
| 20260901203524 | 76 | 0.0 | 0.0 | 0.00 | 0.00 | 0.00 | 68 | 1019.1 | |
| 20260901201638 | 76 | 0.0 | 0.0 | 0.00 | 0.00 | 0.00 | 69 | 1019.0 | |
| 20260901200535 | 77 | 22 | 0.0 | 1.0 | 0.00 | 0.00 | 0.00 | 69 | 1019.0 |
| 20260901195553 | 77 | 31 | 0.0 | 1.0 | 0.00 | 0.00 | 0.00 | 68 | 1019.1 |
| 20260901194549 | 78 | 0.0 | 0.0 | 0.00 | 0.00 | 0.00 | 68 | 1019.0 | |
| 20260901193626 | 78 | 0.0 | 0.0 | 0.00 | 0.00 | 0.00 | 67 | 1019.0 | |
| 20260901192543 | 79 | 86 | 2.0 | 3.0 | 0.00 | 0.00 | 0.00 | 66 | 1018.9 |
| 20260901191520 | 79 | 78 | 1.0 | 2.0 | 0.00 | 0.00 | 0.00 | 65 | 1018.9 |
| 20260901190557 | 79 | 89 | 1.0 | 2.0 | 0.00 | 0.00 | 0.00 | 66 | 1018.7 |
| 20260901185553 | 79 | 80 | 1.0 | 2.0 | 0.00 | 0.00 | 0.00 | 66 | 1018.4 |
| 20260901184540 | 79 | 84 | 0.0 | 2.0 | 0.00 | 0.00 | 0.00 | 66 | 1018.4 |
| 20260901183556 | 80 | 89 | 2.0 | 4.0 | 0.00 | 0.00 | 0.00 | 66 | 1018.2 |
| 20260901182653 | 80 | 87 | 3.0 | 4.0 | 0.00 | 0.00 | 0.00 | 66 | 1018.1 |
| 20260901181650 | 81 | 89 | 1.0 | 3.0 | 0.00 | 0.00 | 0.00 | 66 | 1018.2 |
| 20260901180528 | 81 | 86 | 2.0 | 3.0 | 0.00 | 0.00 | 0.00 | 65 | 1018.0 |
| 20260901175626 | 82 | 85 | 2.0 | 3.0 | 0.00 | 0.00 | 0.00 | 64 | 1018.0 |
| 20260901174521 | 82 | 87 | 3.0 | 4.0 | 0.00 | 0.00 | 0.00 | 63 | 1018.0 |
| 20260901173553 | 83 | 82 | 3.0 | 7.0 | 0.00 | 0.00 | 0.00 | 62 | 1017.9 |
| 20260901172530 | 84 | 63 | 2.0 | 7.0 | 0.00 | 0.00 | 0.00 | 61 | 1017.8 |
| 20260901171551 | 84 | 81 | 3.0 | 4.0 | 0.00 | 0.00 | 0.00 | 60 | 1017.7 |
| 20260901170525 | 85 | 69 | 2.0 | 6.0 | 0.00 | 0.00 | 0.00 | 59 | 1017.6 |
| 20260901165657 | 85 | 99 | 2.0 | 4.0 | 0.00 | 0.00 | 0.00 | 58 | 1017.7 |
| 20260901164634 | 86 | 75 | 4.0 | 8.0 | 0.00 | 0.00 | 0.00 | 58 | 1017.8 |
| 20260901163531 | 86 | 88 | 4.0 | 7.0 | 0.00 | 0.00 | 0.00 | 56 | 1017.6 |
| 20260901162528 | 87 | 82 | 5.0 | 8.0 | 0.00 | 0.00 | 0.00 | 56 | 1017.6 |
| 20260901161545 | 87 | 86 | 5.0 | 9.0 | 0.00 | 0.00 | 0.00 | 56 | 1017.7 |
| 20260901160703 | 87 | 90 | 4.0 | 8.0 | 0.00 | 0.00 | 0.00 | 55 | 1017.7 |
| 20260901155540 | 87 | 96 | 3.0 | 8.0 | 0.00 | 0.00 | 0.00 | 55 | 1017.7 |
| 20260901154516 | 86 | 92 | 3.0 | 3.0 | 0.00 | 0.00 | 0.00 | 55 | 1017.8 |
| 20260901153633 | 87 | 100 | 3.0 | 7.0 | 0.00 | 0.00 | 0.00 | 54 | 1017.9 |
| 20260901152530 | 87 | 87 | 2.0 | 6.0 | 0.00 | 0.00 | 0.00 | 53 | 1017.8 |
| 20260901151626 | 87 | 106 | 2.0 | 6.0 | 0.00 | 0.00 | 0.00 | 53 | 1017.9 |
| 20260901150544 | 87 | 104 | 5.0 | 10.0 | 0.00 | 0.00 | 0.00 | 54 | 1017.9 |
| 20260901145600 | 87 | 114 | 3.0 | 6.0 | 0.00 | 0.00 | 0.00 | 52 | 1018.1 |
| 20260901144557 | 87 | 97 | 5.0 | 9.0 | 0.00 | 0.00 | 0.00 | 53 | 1018.1 |
| 20260901143534 | 88 | 97 | 3.0 | 9.0 | 0.00 | 0.00 | 0.00 | 52 | 1018.0 |